| time (UTC) | temp F | wind direction | speed MPH | gust MPH | rain 1hr in | rain 24hr in | rain mn in | humidity % | barometer mb |
| 20260510194444 | 55 | 339 | 1.0 | 2.0 | 0.00 | 0.00 | 0.00 | 73 | 1014.4 |
| 20260510193923 | 56 | 332 | 0.0 | 2.0 | 0.00 | 0.00 | 0.00 | 71 | 1014.2 |
| 20260510192444 | 56 | 337 | 0.0 | 3.0 | 0.00 | 0.00 | 0.00 | 70 | 1013.9 |
| 20260510191444 | 56 | 342 | 3.0 | 3.0 | 0.00 | 0.00 | 0.00 | 70 | 1014.1 |
| 20260510190926 | 56 | 36 | 1.0 | 7.0 | 0.00 | 0.00 | 0.00 | 69 | 1014.1 |
| 20260510185443 | 57 | 343 | 2.0 | 6.0 | 0.00 | 0.00 | 0.00 | 68 | 1014.1 |
| 20260510184928 | 57 | 340 | 0.0 | 8.0 | 0.00 | 0.00 | 0.00 | 67 | 1013.9 |
| 20260510183443 | 58 | 87 | 1.0 | 7.0 | 0.00 | 0.00 | 0.00 | 65 | 1014.0 |
| 20260510182444 | 58 | 129 | 1.0 | 6.0 | 0.00 | 0.00 | 0.00 | 64 | 1014.2 |
| 20260510181443 | 58 | 286 | 1.0 | 8.0 | 0.00 | 0.00 | 0.00 | 64 | 1014.0 |
| 20260510181358 | 59 | 174 | 1.0 | 8.0 | 0.00 | 0.00 | 0.00 | 64 | 1014.1 |
| 20260510175914 | 58 | 118 | 1.0 | 7.0 | 0.00 | 0.00 | 0.00 | 63 | 1014.1 |
| 20260510174443 | 59 | 27 | 2.0 | 11.0 | 0.00 | 0.00 | 0.00 | 62 | 1014.1 |
| 20260510173444 | 59 | 359 | 3.0 | 8.0 | 0.00 | 0.00 | 0.00 | 63 | 1013.9 |
| 20260510172443 | 60 | 135 | 4.0 | 9.0 | 0.00 | 0.00 | 0.00 | 63 | 1014.0 |
| 20260510171443 | 60 | 131 | 1.0 | 8.0 | 0.00 | 0.00 | 0.00 | 60 | 1014.0 |
| 20260510170443 | 60 | 173 | 2.0 | 8.0 | 0.00 | 0.00 | 0.00 | 56 | 1014.1 |
| 20260510165443 | 60 | 15 | 2.0 | 10.0 | 0.00 | 0.00 | 0.00 | 53 | 1013.9 |
| 20260510164443 | 60 | 219 | 2.0 | 9.0 | 0.00 | 0.00 | 0.00 | 52 | 1014.1 |
| 20260510163443 | 60 | 287 | 0.0 | 9.0 | 0.00 | 0.00 | 0.00 | 54 | 1014.3 |
| 20260510162443 | 60 | 105 | 6.0 | 11.0 | 0.00 | 0.00 | 0.00 | 56 | 1014.2 |
| 20260510161442 | 61 | 116 | 6.0 | 11.0 | 0.00 | 0.00 | 0.00 | 57 | 1014.2 |
| 20260510160444 | 61 | 245 | 3.0 | 11.0 | 0.00 | 0.00 | 0.00 | 57 | 1014.3 |
| 20260510155922 | 60 | 222 | 2.0 | 11.0 | 0.00 | 0.00 | 0.00 | 60 | 1014.2 |
| 20260510154443 | 60 | 68 | 2.0 | 14.0 | 0.00 | 0.00 | 0.00 | 65 | 1014.1 |
| 20260510153443 | 60 | 224 | 4.0 | 9.0 | 0.00 | 0.00 | 0.00 | 66 | 1014.4 |
| 20260510152443 | 62 | 74 | 4.0 | 8.0 | 0.00 | 0.00 | 0.00 | 63 | 1014.4 |
| 20260510151443 | 61 | 48 | 1.0 | 10.0 | 0.00 | 0.00 | 0.00 | 64 | 1014.7 |
| 20260510150443 | 62 | 296 | 2.0 | 10.0 | 0.00 | 0.00 | 0.00 | 64 | 1014.6 |
| 20260510145443 | 62 | 154 | 6.0 | 10.0 | 0.00 | 0.00 | 0.00 | 60 | 1014.5 |
| 20260510144444 | 62 | 49 | 3.0 | 9.0 | 0.00 | 0.00 | 0.00 | 60 | 1014.6 |
| 20260510143444 | 61 | 151 | 3.0 | 10.0 | 0.00 | 0.00 | 0.00 | 60 | 1014.7 |
| 20260510142443 | 62 | 34 | 5.0 | 11.0 | 0.00 | 0.00 | 0.00 | 59 | 1014.9 |
| 20260510141442 | 62 | 250 | 1.0 | 14.0 | 0.00 | 0.00 | 0.00 | 61 | 1014.8 |
| 20260510140443 | 62 | 146 | 6.0 | 13.0 | 0.00 | 0.00 | 0.00 | 59 | 1014.8 |
| 20260510135443 | 64 | 125 | 4.0 | 9.0 | 0.00 | 0.00 | 0.00 | 57 | 1014.9 |
| 20260510134443 | 63 | 120 | 7.0 | 11.0 | 0.00 | 0.00 | 0.00 | 56 | 1014.7 |
| 20260510133443 | 64 | 119 | 8.0 | 14.0 | 0.00 | 0.00 | 0.00 | 54 | 1014.8 |
| 20260510132935 | 65 | 214 | 3.0 | 10.0 | 0.00 | 0.00 | 0.00 | 52 | 1014.8 |
| 20260510131908 | 64 | 213 | 4.0 | 13.0 | 0.00 | 0.00 | 0.00 | 53 | 1014.9 |
| 20260510130430 | 64 | 134 | 5.0 | 14.0 | 0.00 | 0.00 | 0.00 | 52 | 1014.7 |
| 20260510125431 | 64 | 176 | 4.0 | 14.0 | 0.00 | 0.00 | 0.00 | 52 | 1014.9 |
| 20260510124432 | 64 | 137 | 7.0 | 13.0 | 0.00 | 0.00 | 0.00 | 50 | 1015.2 |
| 20260510123431 | 64 | 255 | 4.0 | 13.0 | 0.00 | 0.00 | 0.00 | 51 | 1015.1 |
| 20260510122910 | 64 | 290 | 1.0 | 11.0 | 0.00 | 0.00 | 0.00 | 51 | 1015.1 |
| 20260510121431 | 63 | 271 | 2.0 | 13.0 | 0.00 | 0.00 | 0.00 | 50 | 1015.2 |
| 20260510120431 | 64 | 147 | 7.0 | 11.0 | 0.00 | 0.00 | 0.00 | 51 | 1015.1 |
| 20260510115431 | 64 | 52 | 3.0 | 8.0 | 0.00 | 0.00 | 0.00 | 53 | 1015.4 |
| 20260510114836 | 64 | 210 | 4.0 | 9.0 | 0.00 | 0.00 | 0.00 | 51 | 1015.3 |
| 20260510114504 | 64 | 337 | 3.0 | 7.0 | 0.00 | 0.00 | 0.00 | 52 | 1015.1 |
| 20260510112431 | 64 | 306 | 3.0 | 8.0 | 0.00 | 0.00 | 0.00 | 53 | 1015.5 |
| 20260510111431 | 63 | 160 | 4.0 | 13.0 | 0.00 | 0.00 | 0.00 | 57 | 1015.4 |
| 20260510110431 | 63 | 286 | 1.0 | 7.0 | 0.00 | 0.00 | 0.00 | 59 | 1015.6 |
| 20260510105431 | 62 | 329 | 0.0 | 7.0 | 0.00 | 0.00 | 0.00 | 63 | 1015.5 |
| 20260510104431 | 61 | 246 | 5.0 | 8.0 | 0.00 | 0.00 | 0.00 | 67 | 1015.7 |
| 20260510103431 | 59 | 343 | 2.0 | 7.0 | 0.00 | 0.00 | 0.00 | 75 | 1015.5 |
| 20260510102431 | 60 | 64 | 3.0 | 10.0 | 0.00 | 0.00 | 0.00 | 71 | 1015.3 |
| 20260510101430 | 61 | 142 | 3.0 | 9.0 | 0.00 | 0.00 | 0.00 | 62 | 1015.3 |
| 20260510100431 | 63 | 319 | 1.0 | 7.0 | 0.00 | 0.00 | 0.00 | 57 | 1015.3 |
| 20260510095431 | 62 | 228 | 2.0 | 9.0 | 0.00 | 0.00 | 0.00 | 58 | 1015.3 |
| 20260510094432 | 60 | 110 | 2.0 | 8.0 | 0.00 | 0.00 | 0.00 | 62 | 1015.1 |
| 20260510093431 | 60 | 199 | 3.0 | 10.0 | 0.00 | 0.00 | 0.00 | 64 | 1015.2 |
| 20260510092431 | 59 | 176 | 3.0 | 9.0 | 0.00 | 0.00 | 0.00 | 63 | 1014.9 |
| 20260510091431 | 59 | 244 | 5.0 | 11.0 | 0.00 | 0.00 | 0.00 | 65 | 1014.8 |
| 20260510090432 | 60 | 262 | 1.0 | 7.0 | 0.00 | 0.00 | 0.00 | 63 | 1014.9 |
| 20260510085431 | 59 | 86 | 3.0 | 7.0 | 0.00 | 0.00 | 0.00 | 64 | 1014.9 |
| 20260510084431 | 60 | 221 | 2.0 | 3.0 | 0.00 | 0.00 | 0.00 | 63 | 1014.6 |
| 20260510083432 | 57 | 74 | 2.0 | 4.0 | 0.00 | 0.00 | 0.00 | 66 | 1014.9 |
| 20260510082432 | 57 | 292 | 0.0 | 7.0 | 0.00 | 0.00 | 0.00 | 67 | 1014.8 |
| 20260510081431 | 58 | 339 | 0.0 | 3.0 | 0.00 | 0.00 | 0.00 | 62 | 1014.6 |
| 20260510080431 | 57 | 32 | 0.0 | 6.0 | 0.00 | 0.00 | 0.00 | 64 | 1014.7 |
| 20260510075432 | 56 | 352 | 1.0 | 4.0 | 0.00 | 0.00 | 0.00 | 66 | 1014.7 |
| 20260510074430 | 55 | 44 | 0.0 | 2.0 | 0.00 | 0.00 | 0.00 | 66 | 1014.5 |
| 20260510073431 | 53 | 304 | 0.0 | 4.0 | 0.00 | 0.00 | 0.00 | 70 | 1014.5 |
| 20260510072431 | 53 | 347 | 1.0 | 4.0 | 0.00 | 0.00 | 0.00 | 70 | 1014.4 |
| 20260510071432 | 52 | 325 | 2.0 | 3.0 | 0.00 | 0.00 | 0.00 | 71 | 1014.2 |
| 20260510070432 | 52 | 358 | 2.0 | 4.0 | 0.00 | 0.00 | 0.00 | 72 | 1014.2 |
| 20260510065906 | 51 | 343 | 2.0 | 6.0 | 0.00 | 0.00 | 0.00 | 74 | 1014.1 |
| 20260510064431 | 51 | 345 | 1.0 | 3.0 | 0.00 | 0.00 | 0.00 | 72 | 1014.3 |
| 20260510063432 | 51 | 342 | 1.0 | 4.0 | 0.00 | 0.00 | 0.00 | 72 | 1014.1 |
| 20260510062432 | 50 | 346 | 1.0 | 4.0 | 0.00 | 0.00 | 0.00 | 74 | 1014.0 |
| 20260510061431 | 51 | 349 | 2.0 | 3.0 | 0.00 | 0.00 | 0.00 | 72 | 1014.1 |
| 20260510060431 | 51 | 331 | 3.0 | 4.0 | 0.00 | 0.00 | 0.00 | 72 | 1013.7 |
| 20260510055910 | 51 | 339 | 2.0 | 6.0 | 0.00 | 0.00 | 0.00 | 70 | 1014.1 |
| 20260510054431 | 51 | 46 | 3.0 | 6.0 | 0.00 | 0.00 | 0.00 | 72 | 1013.7 |
| 20260510053919 | 51 | 356 | 1.0 | 4.0 | 0.00 | 0.00 | 0.00 | 69 | 1013.8 |
| 20260510052433 | 50 | 341 | 4.0 | 7.0 | 0.00 | 0.00 | 0.00 | 71 | 1013.8 |
| 20260510051433 | 50 | 338 | 4.0 | 7.0 | 0.00 | 0.00 | 0.00 | 70 | 1013.5 |
| 20260510050909 | 50 | 4 | 3.0 | 6.0 | 0.00 | 0.00 | 0.00 | 70 | 1013.7 |
| 20260510045434 | 50 | 342 | 4.0 | 7.0 | 0.00 | 0.00 | 0.00 | 70 | 1013.3 |
| 20260510044432 | 51 | 345 | 3.0 | 6.0 | 0.00 | 0.00 | 0.00 | 69 | 1013.6 |
| 20260510043432 | 50 | 341 | 3.0 | 6.0 | 0.00 | 0.00 | 0.00 | 68 | 1013.4 |
| 20260510042432 | 51 | 349 | 3.0 | 8.0 | 0.00 | 0.00 | 0.00 | 69 | 1013.3 |
| 20260510041431 | 50 | 339 | 3.0 | 6.0 | 0.00 | 0.00 | 0.00 | 65 | 1013.8 |
| 20260510040432 | 51 | 342 | 5.0 | 7.0 | 0.00 | 0.00 | 0.00 | 64 | 1013.3 |
| 20260510035431 | 51 | 339 | 3.0 | 7.0 | 0.00 | 0.00 | 0.00 | 64 | 1013.4 |
| 20260510034435 | 50 | 336 | 4.0 | 6.0 | 0.00 | 0.00 | 0.00 | 65 | 1013.3 |
| 20260510033431 | 51 | 343 | 1.0 | 4.0 | 0.00 | 0.00 | 0.00 | 65 | 1013.2 |
| 20260510032431 | 51 | 342 | 2.0 | 4.0 | 0.00 | 0.00 | 0.00 | 63 | 1013.3 |
| 20260510031430 | 50 | 332 | 5.0 | 6.0 | 0.00 | 0.00 | 0.00 | 63 | 1013.5 |
| 20260510030430 | 51 | 342 | 2.0 | 6.0 | 0.00 | 0.00 | 0.00 | 60 | 1013.3 |
| 20260510025431 | 51 | 322 | 2.0 | 7.0 | 0.00 | 0.00 | 0.00 | 60 | 1013.2 |
| 20260510024431 | 52 | 10 | 4.0 | 7.0 | 0.00 | 0.00 | 0.00 | 60 | 1013.3 |
| 20260510023431 | 53 | 347 | 2.0 | 6.0 | 0.00 | 0.00 | 0.00 | 58 | 1013.3 |
| 20260510022431 | 52 | 342 | 2.0 | 7.0 | 0.00 | 0.00 | 0.00 | 59 | 1013.4 |
| 20260510021431 | 53 | 308 | 1.0 | 6.0 | 0.00 | 0.00 | 0.00 | 59 | 1013.7 |
| 20260510020431 | 53 | 70 | 4.0 | 6.0 | 0.00 | 0.00 | 0.00 | 59 | 1013.7 |
| 20260510015431 | 53 | 352 | 5.0 | 6.0 | 0.00 | 0.00 | 0.00 | 63 | 1013.6 |
| 20260510014432 | 53 | 340 | 2.0 | 6.0 | 0.00 | 0.00 | 0.00 | 62 | 1013.7 |
| 20260510013431 | 52 | 342 | 4.0 | 6.0 | 0.00 | 0.00 | 0.00 | 66 | 1013.5 |
| 20260510012431 | 52 | 341 | 3.0 | 6.0 | 0.00 | 0.00 | 0.00 | 70 | 1013.7 |
| 20260510011431 | 52 | 339 | 2.0 | 4.0 | 0.00 | 0.00 | 0.00 | 69 | 1013.9 |
| 20260510010431 | 51 | 341 | 2.0 | 4.0 | 0.00 | 0.00 | 0.00 | 72 | 1013.8 |
| 20260510005431 | 52 | 13 | 4.0 | 4.0 | 0.00 | 0.00 | 0.00 | 70 | 1013.7 |
| 20260510004913 | 53 | 333 | 1.0 | 7.0 | 0.00 | 0.00 | 0.00 | 70 | 1013.9 |
| 20260510003431 | 53 | 260 | 0.0 | 3.0 | 0.00 | 0.00 | 0.00 | 69 | 1013.8 |
| 20260510002431 | 53 | 33 | 2.0 | 7.0 | 0.00 | 0.00 | 0.00 | 69 | 1014.0 |
| 20260510001430 | 52 | 326 | 2.0 | 4.0 | 0.00 | 0.00 | 0.00 | 73 | 1014.2 |
| 20260510000433 | 53 | 344 | 2.0 | 6.0 | 0.00 | 0.00 | 0.00 | 73 | 1014.2 |
| 20260509235430 | 52 | 350 | 4.0 | 9.0 | 0.00 | 0.00 | 0.00 | 74 | 1014.0 |
| 20260509234431 | 52 | 4 | 4.0 | 7.0 | 0.00 | 0.00 | 0.00 | 74 | 1014.2 |
| 20260509233431 | 53 | 325 | 4.0 | 4.0 | 0.00 | 0.00 | 0.00 | 75 | 1014.0 |
| 20260509232909 | 53 | 3 | 0.0 | 6.0 | 0.00 | 0.00 | 0.00 | 76 | 1014.1 |
| 20260509231909 | 53 | 295 | 0.0 | 4.0 | 0.00 | 0.00 | 0.00 | 75 | 1014.1 |
| 20260509230444 | 53 | 12 | 1.0 | 3.0 | 0.00 | 0.00 | 0.00 | 73 | 1013.9 |
| 20260509225431 | 53 | 338 | 2.0 | 4.0 | 0.00 | 0.00 | 0.00 | 72 | 1013.8 |
| 20260509224431 | 53 | 66 | 3.0 | 4.0 | 0.00 | 0.00 | 0.00 | 74 | 1013.9 |
| 20260509224343 | 53 | 338 | 2.0 | 3.0 | 0.00 | 0.00 | 0.00 | 75 | 1013.8 |
| 20260509222430 | 53 | 34 | 0.0 | 3.0 | 0.00 | 0.00 | 0.00 | 75 | 1014.0 |
| 20260509221432 | 53 | 324 | 0.0 | 3.0 | 0.00 | 0.00 | 0.00 | 77 | 1013.8 |
| 20260509220431 | 53 | 11 | 1.0 | 2.0 | 0.00 | 0.00 | 0.00 | 77 | 1014.0 |
| 20260509215431 | 54 | 341 | 4.0 | 4.0 | 0.00 | 0.00 | 0.00 | 76 | 1013.9 |
| 20260509214433 | 54 | 288 | 0.0 | 6.0 | 0.00 | 0.00 | 0.00 | 74 | 1013.8 |
| 20260509213431 | 53 | 339 | 3.0 | 7.0 | 0.00 | 0.00 | 0.00 | 79 | 1013.8 |
| 20260509212431 | 53 | 322 | 1.0 | 4.0 | 0.00 | 0.00 | 0.00 | 77 | 1013.9 |
| 20260509211431 | 53 | 336 | 4.0 | 6.0 | 0.00 | 0.00 | 0.00 | 78 | 1013.8 |
| 20260509210430 | 53 | 319 | 2.0 | 6.0 | 0.00 | 0.00 | 0.00 | 76 | 1013.6 |
| 20260509205431 | 53 | 342 | 3.0 | 4.0 | 0.00 | 0.00 | 0.00 | 77 | 1013.5 |
| 20260509204432 | 54 | 340 | 3.0 | 6.0 | 0.00 | 0.00 | 0.00 | 75 | 1013.1 |
| 20260509203919 | 54 | 354 | 1.0 | 4.0 | 0.00 | 0.00 | 0.00 | 75 | 1013.2 |
| 20260509202431 | 55 | 122 | 0.0 | 7.0 | 0.00 | 0.00 | 0.00 | 74 | 1012.8 |
| 20260509201913 | 56 | 325 | 0.0 | 6.0 | 0.00 | 0.00 | 0.00 | 72 | 1013.0 |
| 20260509200431 | 56 | 225 | 0.0 | 6.0 | 0.00 | 0.00 | 0.00 | 70 | 1012.8 |
| 20260509195431 | 55 | 76 | 2.0 | 3.0 | 0.00 | 0.00 | 0.00 | 74 | 1013.1 |